TimeEST,TemperatureF,Dew PointF,Humidity,Sea Level PressureIn,VisibilityMPH,Wind Direction,Wind SpeedMPH,Gust SpeedMPH,PrecipitationIn,Events,Conditions,WindDirDegrees,DateUTC
12:56 AM,26.1,-0.9,31,30.34,10.0,WNW,8.1,-,N/A,,Clear,300,2013-02-07 05:56:00
1:56 AM,24.1,-2.0,32,30.36,10.0,NNW,5.8,-,N/A,,Clear,330,2013-02-07 06:56:00
2:56 AM,24.1,-0.0,35,30.39,10.0,NW,9.2,-,N/A,,Clear,310,2013-02-07 07:56:00
3:56 AM,21.9,1.0,40,30.39,10.0,NNW,4.6,-,N/A,,Clear,330,2013-02-07 08:56:00
4:56 AM,21.0,3.0,46,30.41,10.0,NNW,3.5,-,N/A,,Clear,340,2013-02-07 09:56:00
5:56 AM,19.9,3.9,50,30.43,10.0,North,4.6,-,N/A,,Clear,350,2013-02-07 10:56:00
6:56 AM,21.2,5.0,50,30.46,10.0,North,4.6,-,N/A,,Clear,350,2013-02-07 11:56:00
7:56 AM,23.0,5.0,46,30.47,10.0,North,6.9,-,N/A,,Clear,360,2013-02-07 12:56:00
8:56 AM,24.1,3.0,40,30.51,10.0,NNW,6.9,-,N/A,,Clear,340,2013-02-07 13:56:00
9:56 AM,26.1,3.0,37,30.51,10.0,North,9.2,-,N/A,,Clear,10,2013-02-07 14:56:00
10:56 AM,28.0,3.0,34,30.52,10.0,North,9.2,-,N/A,,Clear,10,2013-02-07 15:56:00
11:56 AM,30.0,3.0,32,30.49,10.0,North,8.1,-,N/A,,Clear,10,2013-02-07 16:56:00
12:56 PM,30.9,5.0,33,30.48,10.0,East,6.9,-,N/A,,Clear,80,2013-02-07 17:56:00
1:56 PM,30.9,6.1,35,30.46,10.0,Calm,Calm,-,N/A,,Partly Cloudy,0,2013-02-07 18:56:00
2:56 PM,30.9,7.0,37,30.46,10.0,South,5.8,-,N/A,,Overcast,190,2013-02-07 19:56:00
3:56 PM,30.9,9.0,40,30.46,10.0,SE,4.6,-,N/A,,Overcast,140,2013-02-07 20:56:00
4:56 PM,30.0,12.0,47,30.47,10.0,SE,6.9,-,N/A,,Overcast,130,2013-02-07 21:56:00
5:56 PM,30.0,14.0,51,30.46,10.0,ESE,5.8,-,N/A,,Overcast,110,2013-02-07 22:56:00
6:56 PM,30.0,12.0,47,30.47,10.0,ENE,5.8,-,N/A,,Overcast,70,2013-02-07 23:56:00
7:56 PM,28.9,12.9,51,30.47,10.0,East,6.9,-,N/A,,Mostly Cloudy,80,2013-02-08 00:56:00
8:56 PM,28.0,14.0,56,30.46,10.0,East,5.8,-,N/A,,Scattered Clouds,80,2013-02-08 01:56:00
9:56 PM,28.0,14.0,56,30.46,10.0,ENE,6.9,-,N/A,,Clear,70,2013-02-08 02:56:00
10:56 PM,28.0,18.0,66,30.46,10.0,ENE,10.4,-,N/A,,Overcast,70,2013-02-08 03:56:00
11:56 PM,27.0,15.1,61,30.43,10.0,ENE,11.5,-,N/A,,Mostly Cloudy,60,2013-02-08 04:56:00